Location: Bannatyne
(13.0833°N, 59.5333°W)
Time: 21:58:29
(UTC+00:00)

Vanguard 3 - Pass Details

Date: 25 January 2020
Orbit: 508 x 3263 km, 33.3° (Epoch: 19 February)

Event Time Altitude Azimuth Distance (km) Brightness Sun altitude
Rises 22:07:01 0° 271° (W) 6,947 13.5 -3.4°
Reaches altitude 10° 22:12:03 10° 278° (W) 6,098 12.8 -4.6°
Maximum altitude 22:30:19 42° 344° (NNW) 3,983 10.6 -8.8°
Drops below altitude 10° 22:45:29 10° 51° (NE) 5,103 10.6 -12.3°
Enters shadow 22:45:33 10° 51° (NE) 5,115 10.6 -12.4°
Sets 22:49:16 0° 58° (ENE) 5,772 - -13.2°
